RH
74 74 78 80 84 85 84 88 94 94 92 90 89 88 89 89 88 88 89 85 79 79 87 83 83 80 86 75 60 50 75 75 43 29 28 26 34 31 26 19 19 19 24 38 41 42 42
77 79 79 80 80 83 79 88 89 95 94 93 90 89 89 90 90 90 90 88 85 83 88 86 82 80 87 54 36 49 45 36 29 29 28 28 28 22 18 18 20 19 34 38 45 36 35
76 77 80 81 83 83 83 89 89 91 96 94 92 90 89 90 90 89 90 90 89 89 88 86 80 71 79 37 37 44 29 28 22 24 26 23 21 24 29 24 23 21 34 43 48 42 38
76 79 78 80 84 85 87 87 90 89 94 95 93 91 90 90 90 89 90 90 90 90 89 85 79 85 70 37 42 28 30 23 21 21 21 20 21 23 29 25 24 21 21 44 42 45 36
76 77 80 80 81 85 87 87 87 88 91 95 95 92 90 90 90 89 90 91 91 89 87 86 90 90 70 40 34 31 24 21 21 21 22 15 24 30 26 33 34 29 27 27 40 38 36
75 76 77 79 80 81 83 86 88 89 90 94 95 93 90 90 89 89 91 90 89 90 79 69 64 68 47 29 27 20 23 21 24 27 26 30 32 36 35 35 39 30 25 28 26 22 37
75 68 76 76 78 80 78 80 86 88 91 93 95 93 89 89 88 88 92 93 78 84 85 52 36 42 26 24 20 16 18 20 26 28 37 38 36 41 34 32 27 24 28 24 22 19 24
76 77 76 70 68 74 78 78 80 87 88 93 94 93 89 88 88 90 93 90 64 56 70 54 48 43 31 30 26 20 17 23 31 36 45 38 42 32 28 28 31 35 28 28 23 18 19
77 77 77 67 72 73 77 79 78 83 86 93 95 94 90 87 91 96 96 82 56 54 75 55 50 48 40 25 27 23 18 24 32 36 36 37 30 29 29 27 35 34 30 32 28 16 21
76 74 77 77 75 77 78 81 79 84 88 91 96 94 92 92 85 87 94 72 71 65 87 56 44 40 21 21 28 20 16 20 32 34 35 34 32 32 35 35 33 36 24 28 26 28 26
87 77 74 76 76 76 78 79 82 82 87 90 97 95 93 82 91 88 68 66 71 73 79 33 40 22 18 25 24 20 16 20 29 32 31 33 37 35 34 32 29 28 30 29 31 34 41
80 83 78 74 74 77 78 79 79 82 87 90 96 95 94 94 97 87 68 71 85 89 86 44 27 26 26 26 24 22 17 22 26 32 36 32 30 29 30 30 26 25 31 38 47 47 64
74 83 80 76 73 75 75 79 80 82 86 90 96 96 89 78 81 83 78 85 95 92 39 36 30 27 28 29 28 25 25 27 35 41 44 33 33 31 33 33 30 30 37 50 50 73 66
72 88 83 81 76 72 72 80 78 79 85 90 97 97 90 75 84 88 91 95 93 61 56 32 28 27 30 28 28 26 28 29 30 30 45 42 49 41 38 35 40 38 37 59 52 80 57
73 79 82 84 80 75 73 79 80 74 83 88 98 99 96 83 87 84 98 97 77 67 35 33 29 34 33 28 24 26 30 30 24 24 37 55 50 45 42 38 37 41 42 40 72 83 82
73 78 81 82 84 80 78 81 84 80 81 87 97 99 93 84 79 87 98 78 68 50 40 33 36 32 36 30 29 28 28 26 26 23 37 48 53 49 42 35 39 40 30 47 64 73 77
74 76 77 76 77 78 76 77 80 81 75 85 97 95 81 81 83 96 90 75 59 44 44 48 44 40 29 31 28 33 27 22 25 42 42 53 47 55 48 44 41 41 38 39 46 63 64
76 74 78 77 76 75 74 75 77 78 79 87 95 95 85 79 94 80 86 67 60 49 47 54 48 46 32 32 33 34 32 28 32 42 42 49 59 82 55 34 36 39 37 43 67 45 81
76 74 76 80 86 82 77 77 79 78 80 88 94 91 87 73 86 93 72 63 56 49 52 52 47 42 33 35 36 37 37 49 43 36 43 46 53 67 49 34 42 34 32 41 52 70 63
78 75 74 79 88 84 76 77 82 86 80 91 93 96 99 91 63 58 72 73 71 48 52 51 51 48 41 42 45 47 54 51 54 45 62 52 47 46 56 39 41 48 41 38 46 75 65
81 77 77 80 84 78 76 76 79 86 83 93 95 74 75 93 88 62 58 64 70 60 50 47 49 50 50 46 52 40 56 56 52 63 54 47 48 47 42 46 44 42 41 40 39 43 53
81 78 79 78 78 77 76 81 76 87 91 97 92 83 79 87 69 73 62 60 56 51 48 47 53 49 45 39 41 47 54 58 51 56 48 54 57 70 65 51 48 48 40 42 40 39 42
81 76 76 77 76 77 79 79 81 84 95 97 90 83 78 74 76 81 65 56 47 43 50 40 42 45 50 39 46 48 49 51 53 54 62 62 76 75 68 61 54 68 48 39 38 38 38
80 78 79 78 78 78 82 82 86 83 90 96 89 92 89 87 80 78 58 49 48 46 48 44 37 49 51 50 51 52 57 67 67 71 62 72 75 83 83 70 70 48 35 34 39 39 40
78 78 77 76 75 79 81 82 87 86 88 98 97 94 98 96 79 75 62 50 45 46 58 43 55 47 50 61 75 71 85 68 66 60 68 67 84 91 74 78 58 39 35 34 38 49 43
78 77 77 78 79 80 80 80 82 82 84 95 95 98 99 100 84 60 64 49 55 62 59 76 72 74 70 94 82 74 72 62 70 57 57 73 82 83 95 78 67 53 41 35 36 64 46
79 79 80 79 80 79 80 81 83 86 86 92 93 94 97 99 82 56 62 55 43 76 63 88 79 77 77 99 95 84 83 58 77 74 78 88 90 82 97 84 72 50 41 35 43 48 48
81 80 80 80 81 83 84 82 86 88 84 88 93 96 95 97 89 89 51 48 51 68 82 83 87 89 98 91 92 92 87 82 82 72 75 73 90 94 96 94 68 51 38 42 51 60 52
82 81 84 85 86 84 84 86 87 88 83 86 98 92 91 99 95 92 80 80 43 58 82 88 75 82 86 92 99 98 93 95 81 90 69 64 72 82 75 77 58 46 47 55 52 50 52
Wind_Speed
12 12 10 9 9 7 8 7 8 10 10 10 9 9 9 8 9 9 10 10 15 17 15 13 13 14 5 3 10 1 8 10 7 6 3 3 1 1 3 4 3 6 4 9 3 6 4
14 13 12 12 11 8 9 7 8 9 10 10 10 10 9 8 9 9 9 11 11 13 13 12 10 10 2 4 3 6 7 7 4 5 5 5 4 5 5 5 4 8 8 7 6 8 2
17 15 15 13 12 10 10 9 9 9 10 11 10 10 10 8 9 9 9 10 10 11 11 9 8 4 1 16 3 4 8 7 5 4 2 5 4 4 1 6 4 3 10 5 3 5 4
18 17 16 14 13 11 10 10 9 9 9 11 10 10 9 9 9 9 9 10 10 11 9 8 5 2 9 5 2 5 5 4 4 5 3 7 6 4 1 4 9 2 6 5 10 4 6
20 19 17 16 15 12 11 11 9 9 10 10 11 9 9 9 9 9 10 11 10 11 9 7 3 1 12 13 5 9 13 8 4 4 6 4 2 1 7 3 6 6 2 4 3 10 2
23 21 19 18 16 14 14 12 11 10 12 10 10 10 9 8 8 9 10 14 6 6 2 4 6 4 7 4 5 4 8 9 4 3 5 2 5 3 4 4 1 4 2 3 2 7 7
25 26 22 20 18 17 16 16 12 9 11 11 11 10 9 7 5 7 7 5 3 1 2 9 5 5 5 6 6 6 6 7 3 5 3 2 5 3 6 6 5 4 9 6 6 11 6
26 25 24 24 24 20 19 17 13 11 11 11 11 11 9 6 3 3 2 2 4 3 8 14 18 12 14 3 6 5 6 6 4 5 1 4 4 6 4 2 4 2 10 8 12 8 6
28 26 25 27 25 23 19 19 15 13 13 11 11 11 9 7 2 2 3 7 4 11 4 8 8 7 7 9 8 6 10 5 6 5 6 5 6 5 1 8 5 6 6 5 4 4 7
32 29 27 26 24 22 19 19 17 14 12 12 11 10 12 10 3 2 5 4 6 7 2 8 7 8 6 5 6 6 10 6 2 10 5 4 2 2 2 3 4 6 9 3 3 4 2
30 31 30 27 24 22 20 18 18 15 13 11 10 12 14 10 4 3 0 8 4 3 3 6 6 4 9 9 3 3 7 4 6 5 6 8 2 3 4 6 3 7 2 3 3 4 3
32 32 32 30 26 22 22 20 18 16 13 11 11 14 13 2 0 5 10 6 3 5 10 5 7 8 7 6 4 3 5 5 4 5 0 7 2 5 6 3 4 5 4 7 5 4 4
34 33 36 31 28 25 21 21 18 17 14 12 12 15 13 6 4 1 4 3 3 5 6 5 7 8 8 6 5 5 3 4 6 4 3 3 1 3 3 4 7 4 6 4 5 5 6
34 32 31 31 29 27 24 20 19 16 14 13 12 15 8 5 4 5 2 2 10 8 9 4 8 10 9 8 7 6 5 6 3 6 2 4 2 3 2 4 1 6 7 7 4 3 4
32 29 29 29 30 27 24 21 21 20 15 13 12 6 4 6 3 3 2 12 8 7 5 5 3 8 7 7 7 8 8 9 10 9 7 4 4 6 3 3 6 7 3 5 8 4 2
35 33 29 28 25 26 24 21 17 17 17 16 8 4 5 7 9 2 6 17 8 10 5 1 7 7 9 9 7 7 7 7 7 10 8 7 1 2 6 2 5 8 4 3 3 4 3
36 34 33 31 30 29 27 23 21 20 21 18 9 7 10 13 6 3 15 12 15 21 6 4 4 3 9 9 11 7 10 8 9 5 8 5 4 4 4 3 7 1 2 2 4 5 6
36 35 34 32 30 33 28 26 24 24 24 19 7 10 12 14 8 7 16 12 11 21 7 7 5 9 9 10 8 8 9 8 8 12 12 8 7 4 11 15 4 4 7 6 7 4 0
37 35 33 31 29 29 30 27 26 26 30 12 7 6 10 14 14 14 7 20 17 12 6 6 6 7 4 7 6 6 7 2 4 7 8 8 1 3 7 6 4 7 6 4 5 4 6
37 35 35 33 32 33 29 27 23 23 31 13 7 10 7 9 12 21 20 15 17 14 19 10 8 5 4 2 1 6 4 0 2 4 8 8 5 9 9 8 3 3 2 4 5 4 5
37 36 35 34 34 31 28 25 25 23 30 15 7 8 9 16 19 17 21 16 21 14 13 10 10 16 9 5 2 6 4 1 3 6 3 7 6 4 5 3 2 1 2 2 5 5 7
39 37 35 34 31 30 29 26 27 28 22 15 8 5 9 4 16 19 21 23 26 20 11 17 12 11 8 7 8 8 9 5 6 1 4 2 4 1 3 2 2 2 5 5 5 3 5
38 36 34 33 33 32 30 28 25 31 20 5 8 6 7 11 19 18 23 24 27 20 13 25 12 15 5 9 7 6 7 9 10 9 4 4 7 4 5 4 4 6 7 7 5 3 4
37 35 34 34 33 30 29 28 27 27 26 3 8 2 7 10 14 21 24 24 28 20 19 17 22 12 2 13 8 10 12 11 8 6 5 7 6 3 3 3 2 9 5 4 8 5 6
35 34 34 33 31 30 30 28 28 26 28 7 1 5 4 5 12 14 25 26 15 18 13 22 4 6 15 5 6 6 6 6 5 7 6 3 6 3 6 4 5 6 3 6 6 1 3
33 33 32 31 31 29 27 27 30 27 26 13 9 3 3 1 12 15 21 18 18 13 13 4 1 2 3 5 4 6 6 6 4 3 6 7 6 6 3 5 7 8 4 2 5 1 5
31 31 30 29 27 26 26 27 27 24 27 12 5 7 2 4 5 19 17 19 15 5 9 4 5 2 4 4 4 4 4 7 7 9 4 4 4 6 2 2 9 9 6 2 7 9 5
28 27 26 26 25 26 26 26 25 22 28 14 5 4 3 4 8 5 8 16 14 11 9 5 5 2 3 5 4 4 4 6 5 6 8 8 7 4 4 3 8 6 3 8 8 4 8
23 22 20 21 24 26 24 25 23 23 28 12 2 6 4 4 6 6 14 15 19 11 7 1 7 6 5 5 1 4 2 3 5 4 3 2 9 8 10 9 6 5 5 5 7 7 5
Wind_Direction
265 266 265 268 263 261 273 288 270 252 256 261 262 262 271 282 293 291 303 312 315 315 314 318 327 333 356 346 254 346 99 126 131 137 179 190 254 252 258 259 1 210 200 144 134 228 261
267 263 259 262 263 251 267 269 282 257 247 257 259 259 263 275 285 291 300 306 310 313 310 317 330 330 25 296 204 140 134 142 168 166 175 204 238 241 266 254 166 288 163 115 168 212 104
263 258 261 250 256 253 259 260 268 265 245 245 252 256 264 272 284 293 299 302 303 306 304 310 331 322 277 238 66 164 175 185 180 188 200 203 256 266 253 316 314 267 103 64 238 204 196
261 260 254 258 248 244 249 261 261 270 254 246 243 248 255 267 282 292 300 299 302 297 298 296 320 329 255 244 251 233 235 262 235 225 225 263 254 252 92 303 342 50 80 132 233 169 270
253 259 257 251 252 246 243 247 253 264 262 245 243 245 251 259 278 292 303 295 288 288 282 276 290 85 268 312 249 208 183 210 200 281 262 295 24 298 11 48 354 2 171 190 174 215 209
255 250 254 254 253 247 246 248 241 250 255 248 235 238 246 257 281 302 310 283 254 316 247 233 260 331 270 256 259 202 197 184 167 184 330 357 40 34 25 70 234 327 7 311 225 202 170
250 249 247 250 250 250 246 248 250 242 248 246 235 224 234 244 277 319 352 352 31 42 252 204 194 265 272 311 261 227 167 122 96 73 181 317 62 239 236 212 254 360 326 277 264 251 136
241 245 243 243 247 250 243 244 249 253 256 238 229 220 208 217 253 335 53 243 236 201 296 229 245 245 262 319 305 294 103 133 120 205 113 29 248 252 305 343 352 337 251 293 287 221 121
234 236 241 242 241 241 248 241 244 243 252 250 226 204 182 181 135 89 213 237 278 35 293 282 197 205 220 154 224 249 150 150 152 182 200 161 225 231 122 284 344 303 243 250 264 61 37
236 225 233 237 233 235 235 242 232 237 237 250 217 191 162 135 98 187 240 262 261 146 339 270 198 247 183 177 280 206 191 142 156 195 215 232 241 158 353 293 201 258 248 270 273 71 143
249 238 221 227 235 231 234 237 229 228 226 238 214 188 160 169 140 191 221 345 90 70 357 248 173 191 160 157 221 206 189 138 187 189 116 247 199 135 266 235 300 230 170 208 343 76 84
245 245 232 218 216 229 229 230 228 226 215 224 215 181 156 234 297 246 301 325 75 57 250 275 148 177 136 171 253 292 163 108 155 135 73 231 212 164 217 303 259 306 40 33 48 74 47
241 250 226 222 213 211 225 226 221 220 210 216 208 182 163 162 199 252 277 88 91 196 297 209 174 157 170 178 230 190 210 139 141 93 257 236 210 290 84 332 2 82 62 352 356 16 210
235 239 215 219 213 209 210 223 218 220 209 213 199 176 206 189 41 21 356 118 216 222 246 316 163 163 172 176 228 205 184 219 216 110 132 167 22 324 81 111 345 276 151 155 222 203 267
227 227 218 218 210 206 200 207 218 216 204 209 180 190 181 222 188 36 123 215 194 222 205 230 127 148 205 204 185 177 190 203 197 168 153 154 224 295 236 134 105 307 246 178 105 356 15
221 214 217 206 211 212 195 192 203 225 200 194 201 187 191 146 145 128 212 224 208 237 10 312 187 173 180 206 161 173 196 199 206 192 142 203 27 227 288 240 165 169 194 67 15 137 240
215 214 213 213 209 204 200 198 196 210 213 193 213 193 150 136 132 197 212 220 218 262 308 297 227 233 204 180 191 180 210 239 193 110 114 128 120 296 298 200 213 47 251 125 120 138 167
209 209 207 208 210 205 195 202 199 196 208 190 209 196 158 142 163 217 221 199 230 256 250 261 286 226 209 187 189 199 200 218 178 145 155 196 143 169 210 224 315 212 227 145 120 231 119
203 203 203 199 186 190 189 200 197 200 200 180 195 172 177 159 187 212 210 215 230 240 198 222 250 206 211 171 169 170 168 211 169 129 157 177 186 67 345 324 277 208 195 178 111 86 193
198 198 197 192 186 191 192 197 191 199 201 187 196 170 168 194 218 198 191 201 210 235 249 266 278 316 253 173 164 152 136 326 102 120 149 126 135 161 186 205 187 239 227 156 128 110 185
190 191 191 187 182 191 188 196 189 204 204 187 210 194 173 188 205 203 190 192 208 228 208 206 255 235 245 172 126 154 113 66 47 136 147 136 167 155 195 196 172 178 305 259 169 193 156
184 183 183 182 182 189 192 193 190 202 205 199 202 194 154 193 195 197 188 202 205 212 229 216 243 258 198 174 176 192 138 172 194 132 118 38 189 175 207 73 62 218 263 265 263 205 231
179 181 183 181 183 187 190 192 191 200 201 189 226 279 187 205 182 187 203 190 213 204 217 237 213 238 210 216 151 194 149 167 161 142 130 122 133 111 236 6 10 353 232 215 234 221 183
171 174 176 177 180 183 186 190 194 198 198 254 208 264 209 192 192 202 189 192 207 204 211 208 231 232 207 125 96 47 49 57 78 65 133 132 105 101 189 39 26 240 282 217 105 34 84
167 171 175 178 183 185 188 181 193 201 200 235 291 193 273 197 187 195 198 199 198 212 209 231 247 209 166 89 74 66 355 24 2 39 46 115 119 100 133 184 291 299 241 177 139 23 333
165 171 176 179 182 185 184 182 189 200 203 222 222 53 268 127 219 175 195 193 195 196 218 198 227 309 93 100 88 131 173 172 165 117 65 67 66 115 130 137 200 238 249 161 105 130 192
165 170 173 177 179 182 181 184 194 195 209 200 211 196 328 286 237 173 192 201 188 143 191 158 179 154 47 93 100 135 213 162 155 163 173 42 17 141 113 189 286 245 244 80 104 224 153
159 163 167 171 177 176 180 182 191 212 196 181 188 141 199 274 295 333 195 195 185 185 171 185 96 340 88 83 130 184 127 212 103 165 172 157 138 181 102 74 275 199 111 156 203 154 140
150 154 156 170 179 181 180 178 189 205 171 162 123 170 189 235 285 320 274 270 216 152 135 170 165 155 155 100 10 103 108 87 133 205 135 170 176 177 171 210 228 233 172 129 146 139 138